Flag Weather past 2 weeks in Volta Redonda, Rio de Janeiro, Brazil

Now
95 °F

Partly sunny.


Feels Like: 97 °F
Forecast: 71 / 85 °F
Wind: 6 mph from North

Location: Galeao

Current Time: Nov 26, 2014 at 3:47:55 PM

Latest Report: Nov 26, 2014 at 3:00 PM


Visibility: N/A

Pressure: 29.68 "Hg

Humidity: 36%

Dew point: 64 °F

Location of Volta RedondaLocation

Historic Weather in Volta Redonda — Graph

°F

Volta Redonda temperature yesterday

Maximum temperature yesterday: 91 °F (at 4:00 PM)
Minimum temperature yesterday: 72 °F (at 3:00 AM)
Average temperature yesterday: 81 °F

Past Weeks' High & Low Weather Summary

 TemperatureHumidityPressure
High99 °F (Nov 22, 2:00 PM)94% (Nov 16, 12:00 AM)31.10 "Hg (Nov 16, 12:00 AM)
Low63 °F (Nov 17, 1:00 AM)27% (Nov 13, 2:00 PM)29.62 "Hg (Nov 12, 5:00 PM)
Average76 °F66%29.91 "Hg
* Reported Nov 11 2:00 PM — Nov 26 2:00 PM, Volta Redonda, Weather by CustomWeather, © 2014

Note: Actual official high and low records may vary slightly from our data, if they occured in-between our weather recording intervals... More about our weather records

Advertising

Volta Redonda weather history for previous 24 hours

 ConditionsComfort  
Time TempWeatherWind HumidityBarometerVisibility
2:00 PM
Nov 26
91 °FPartly sunny.7 mph41%29.71 "HgN/A
1:00 PM90 °FPartly sunny.9 mph46%29.71 "HgN/A
12:00 PM88 °FPartly sunny.10 mph52%29.74 "HgN/A
11:00 AM84 °FPartly sunny.8 mph58%29.74 "HgN/A
10:00 AM84 °FPartly sunny.10 mph55%29.77 "HgN/A
9:00 AM86 °FPartly sunny.10 mph49%29.74 "HgN/A
8:00 AM84 °FPartly sunny.5 mph55%29.74 "HgN/A
7:00 AM86 °FPartly sunny.9 mph49%29.74 "HgN/A
6:00 AM81 °FPartly sunny.8 mph66%29.71 "HgN/A
5:00 AM82 °FPassing clouds.9 mph58%29.71 "HgN/A
4:00 AM84 °FPassing clouds.10 mph55%29.71 "HgN/A
3:00 AM81 °FPassing clouds.2 mph70%29.71 "HgN/A
2:00 AM81 °FPassing clouds.3 mph70%29.74 "HgN/A
1:00 AM81 °FPassing clouds.1 mph70%29.74 "HgN/A
12:00 AM81 °FPassing clouds.5 mph70%29.77 "HgN/A
11:00 PM
Nov 25
82 °FPassing clouds.5 mph70%29.77 "HgN/A
10:00 PM84 °FPassing clouds.3 mph62%29.77 "HgN/A
9:00 PM84 °FPassing clouds.2 mph58%29.74 "HgN/A
8:00 PM84 °FPassing clouds.5 mph58%29.74 "HgN/A
7:00 PM86 °FScattered clouds.6 mph55%29.71 "HgN/A
6:00 PM88 °FScattered clouds.8 mph52%29.71 "HgN/A
5:00 PM90 °FScattered clouds.13 mph52%29.71 "HgN/A
4:00 PM91 °FPassing clouds.9 mph44%29.74 "HgN/A
3:00 PM90 °FPassing clouds.12 mph49%29.77 "HgN/A
Weather by CustomWeather, © 2014

See weather overviewHow to use our weather pages